Total_Precipitation_Accumulation
2.21 2.27 2.27 2.17 2.15 2.22 2.21 2.08 2.05 2.02 1.89 1.84 1.77 1.69 1.63 1.63 1.70 1.83 1.87 1.95 2.03 2.11 2.22 2.27 2.28 2.26 2.36 2.37 2.41 2.45 2.60 2.74 2.68 2.35 2.15 2.06 1.99 1.84 1.87 1.88 1.84 1.78 1.58
1.96 1.91 1.92 1.96 1.91 1.94 1.92 1.82 1.81 1.88 1.82 1.76 1.65 1.56 1.45 1.44 1.51 1.54 1.57 1.68 1.82 1.86 1.91 2.00 1.94 1.97 2.08 2.06 2.13 2.16 2.25 2.40 2.44 2.42 2.33 2.23 2.10 1.93 1.96 1.95 1.64 1.45 1.42
1.90 1.85 1.79 1.82 1.85 1.84 1.79 1.77 1.73 1.79 1.78 1.68 1.56 1.50 1.45 1.41 1.42 1.45 1.52 1.53 1.60 1.67 1.69 1.75 1.79 1.85 1.78 1.72 1.78 1.88 1.93 1.99 2.23 2.26 2.16 2.12 1.95 1.79 1.94 1.86 1.71 1.78 1.39
1.82 1.79 1.81 1.87 1.93 1.91 1.89 1.89 1.82 1.74 1.68 1.61 1.57 1.48 1.42 1.37 1.39 1.41 1.41 1.50 1.54 1.54 1.54 1.57 1.56 1.58 1.61 1.68 1.70 1.86 1.92 2.06 2.15 2.15 2.07 2.02 1.92 1.80 1.96 1.95 1.95 1.86 1.54
1.70 1.73 1.80 1.88 1.91 1.84 1.88 1.85 1.80 1.78 1.66 1.62 1.56 1.50 1.36 1.23 1.17 1.24 1.30 1.39 1.53 1.56 1.54 1.45 1.40 1.46 1.52 1.54 1.48 1.65 1.82 1.97 1.97 1.97 1.95 1.99 1.89 1.96 1.90 1.81 1.88 1.93 1.77
1.81 1.77 1.75 1.76 1.70 1.68 1.70 1.72 1.65 1.61 1.62 1.58 1.48 1.39 1.31 1.16 1.21 1.22 1.28 1.41 1.49 1.49 1.44 1.40 1.32 1.29 1.27 1.29 1.26 1.37 1.59 1.71 1.82 1.90 1.91 1.95 1.94 2.05 2.05 1.99 1.98 2.02 1.96
1.73 1.72 1.64 1.57 1.51 1.54 1.53 1.55 1.59 1.64 1.62 1.52 1.41 1.38 1.38 1.32 1.19 1.06 1.09 1.22 1.37 1.37 1.36 1.39 1.20 1.06 1.18 1.17 1.20 1.20 1.25 1.29 1.43 1.68 1.87 1.93 2.08 2.24 2.35 2.23 2.15 2.10 2.07
1.70 1.63 1.51 1.42 1.39 1.50 1.45 1.48 1.56 1.56 1.52 1.51 1.47 1.51 1.53 1.31 1.06 0.88 0.99 1.21 1.33 1.22 1.19 1.25 1.31 1.32 1.22 1.21 1.21 1.25 1.26 1.24 1.25 1.32 1.60 1.74 1.81 2.05 2.29 2.32 2.31 2.20 2.16
1.65 1.55 1.39 1.31 1.36 1.39 1.33 1.35 1.44 1.44 1.41 1.43 1.45 1.51 1.49 1.35 1.13 0.94 0.97 1.15 1.27 1.25 1.21 1.17 1.17 1.17 1.15 1.18 1.28 1.45 1.49 1.44 1.18 1.22 1.35 1.44 1.51 1.67 1.85 2.10 2.34 2.42 2.29
1.66 1.57 1.44 1.41 1.41 1.42 1.43 1.41 1.37 1.35 1.32 1.32 1.37 1.49 1.46 1.35 1.13 0.91 0.90 0.98 1.14 1.31 1.43 1.39 1.30 1.18 1.11 1.16 1.32 1.53 1.59 1.57 1.55 1.65 1.75 1.73 1.67 1.71 1.70 1.93 2.30 2.46 2.38
1.68 1.64 1.65 1.65 1.58 1.54 1.56 1.52 1.46 1.35 1.35 1.38 1.39 1.45 1.48 1.29 1.04 0.87 0.89 0.93 1.07 1.25 1.37 1.43 1.34 1.23 1.16 1.19 1.30 1.47 1.56 1.59 1.84 2.20 2.20 2.02 1.91 1.83 1.73 1.77 2.02 2.26 2.37
1.79 1.78 1.76 1.68 1.60 1.57 1.65 1.57 1.54 1.58 1.51 1.50 1.44 1.44 1.38 1.19 0.95 0.85 0.86 0.88 0.94 1.10 1.27 1.26 1.28 1.24 1.18 1.20 1.22 1.34 1.50 1.68 1.98 2.34 2.32 2.09 1.89 1.79 1.75 1.68 1.75 1.92 2.15
1.89 1.86 1.82 1.73 1.68 1.69 1.70 1.58 1.48 1.59 1.53 1.42 1.33 1.33 1.26 1.13 0.98 0.85 0.84 0.85 0.86 0.90 1.00 1.06 1.08 1.07 1.12 1.23 1.29 1.36 1.49 1.76 2.04 2.18 2.10 1.91 1.79 1.76 1.74 1.74 1.73 1.86 1.96
1.81 1.79 1.81 1.79 1.69 1.59 1.54 1.46 1.41 1.42 1.47 1.46 1.36 1.30 1.19 1.09 0.95 0.81 0.78 0.79 0.78 0.77 0.82 0.94 1.07 1.15 1.22 1.35 1.54 1.63 1.65 1.75 1.85 1.91 1.84 1.75 1.69 1.70 1.69 1.59 1.67 1.83 1.97
1.78 1.63 1.61 1.58 1.52 1.49 1.41 1.31 1.27 1.19 1.19 1.26 1.21 1.10 1.01 0.95 0.86 0.85 0.82 0.80 0.79 0.81 0.84 0.95 1.15 1.31 1.41 1.45 1.51 1.62 1.67 1.64 1.61 1.57 1.57 1.57 1.60 1.66 1.60 1.51 1.58 1.68 1.83
1.69 1.59 1.55 1.44 1.38 1.26 1.23 1.23 1.24 1.13 1.04 1.01 1.04 0.96 0.83 0.81 0.81 0.78 0.75 0.75 0.82 0.88 0.92 1.06 1.21 1.30 1.37 1.45 1.49 1.49 1.48 1.46 1.40 1.38 1.38 1.34 1.36 1.42 1.48 1.52 1.62 1.68 1.71
1.65 1.61 1.50 1.43 1.38 1.30 1.23 1.21 1.24 1.16 1.07 1.02 0.99 0.93 0.83 0.79 0.76 0.73 0.72 0.70 0.75 0.86 0.95 1.15 1.25 1.29 1.39 1.49 1.47 1.42 1.37 1.31 1.29 1.25 1.25 1.22 1.19 1.25 1.38 1.48 1.58 1.69 1.68
1.42 1.45 1.45 1.37 1.30 1.31 1.33 1.28 1.24 1.29 1.26 1.12 0.98 0.91 0.86 0.84 0.82 0.78 0.76 0.74 0.82 0.91 1.07 1.27 1.33 1.33 1.36 1.37 1.38 1.39 1.37 1.30 1.26 1.26 1.25 1.24 1.24 1.25 1.34 1.41 1.47 1.54 1.59
1.34 1.33 1.30 1.31 1.26 1.23 1.27 1.29 1.27 1.30 1.35 1.29 1.14 1.02 1.00 0.98 0.97 0.96 0.88 0.83 0.90 0.97 1.05 1.12 1.19 1.25 1.29 1.27 1.29 1.29 1.32 1.34 1.31 1.32 1.33 1.31 1.28 1.29 1.30 1.31 1.31 1.28 1.33
1.12 1.17 1.18 1.19 1.22 1.21 1.20 1.23 1.27 1.32 1.36 1.33 1.22 1.14 1.17 1.17 1.13 1.08 0.99 0.95 0.98 1.00 1.04 1.11 1.15 1.16 1.19 1.22 1.23 1.23 1.23 1.26 1.26 1.24 1.21 1.22 1.21 1.21 1.22 1.21 1.22 1.23 1.24
0.95 0.91 0.91 0.89 0.92 0.94 0.98 1.04 1.10 1.21 1.25 1.20 1.10 1.09 1.22 1.18 1.21 1.15 1.10 1.09 1.10 1.08 1.09 1.15 1.14 1.13 1.11 1.14 1.24 1.28 1.29 1.27 1.20 1.17 1.15 1.11 1.08 1.08 1.05 1.04 1.04 1.09 1.15
0.84 0.75 0.68 0.67 0.72 0.79 0.82 0.83 0.91 0.95 1.01 1.01 0.96 0.96 1.08 1.05 1.07 1.05 1.04 1.06 1.09 1.09 1.12 1.20 1.21 1.16 1.13 1.13 1.22 1.28 1.31 1.29 1.22 1.19 1.15 1.12 1.05 1.01 1.02 1.01 1.00 1.05 1.12
0.74 0.69 0.63 0.61 0.65 0.76 0.81 0.83 0.88 0.89 0.91 0.93 0.92 0.90 0.92 0.99 1.03 1.07 1.08 1.07 1.06 1.01 0.98 1.05 1.12 1.12 1.12 1.09 1.07 1.07 1.13 1.19 1.18 1.16 1.21 1.20 1.11 1.03 1.02 0.99 0.97 0.98 1.04
0.69 0.67 0.66 0.63 0.66 0.75 0.78 0.76 0.76 0.76 0.80 0.87 0.84 0.81 0.82 0.85 0.90 0.93 0.98 1.04 1.04 1.01 0.93 0.95 0.98 0.99 1.00 1.03 1.00 0.93 0.93 1.01 1.04 1.07 1.15 1.16 1.09 1.04 1.03 0.98 0.96 0.97 1.00
0.63 0.67 0.70 0.67 0.68 0.73 0.76 0.75 0.76 0.75 0.79 0.87 0.84 0.79 0.79 0.75 0.72 0.72 0.77 0.83 0.84 0.82 0.77 0.72 0.71 0.71 0.76 0.79 0.79 0.80 0.91 0.93 0.91 0.95 1.00 1.02 0.97 0.98 1.00 0.96 0.94 0.97 1.00
0.62 0.68 0.73 0.77 0.80 0.78 0.79 0.81 0.81 0.79 0.81 0.84 0.84 0.86 0.85 0.78 0.72 0.69 0.70 0.71 0.70 0.66 0.62 0.62 0.60 0.59 0.58 0.57 0.62 0.71 0.74 0.70 0.71 0.78 0.85 0.91 0.90 0.92 0.97 0.99 0.94 0.98 0.98